"Time","Value","Approval","myLocation"
"2023-09-13 18:00",11.892,"Working","OW432"
"2023-09-13 19:00",11.8959998025666,"Working","OW432"
"2023-09-13 20:00",11.8979996051333,"Working","OW432"
"2023-09-13 21:00",11.8989994076999,"Working","OW432"
"2023-09-13 22:00",11.8989992102665,"Working","OW432"
"2023-09-13 23:00",11.8959990128332,"Working","OW432"
"2023-09-14 00:00",11.8919988153998,"Working","OW432"
"2023-09-14 01:00",11.8869986179664,"Working","OW432"
"2023-09-14 02:00",11.8869984205331,"Working","OW432"
"2023-09-14 03:00",11.8859982230997,"Working","OW432"
"2023-09-14 04:00",11.8839980256663,"Working","OW432"
"2023-09-14 05:00",11.886997828233,"Working","OW432"
"2023-09-14 06:00",11.8899976307996,"Working","OW432"
"2023-09-14 07:00",11.8919974333662,"Working","OW432"
"2023-09-14 08:00",11.8919972359329,"Working","OW432"
"2023-09-14 09:00",11.8909970384995,"Working","OW432"
"2023-09-14 10:00",11.8869968410661,"Working","OW432"
"2023-09-14 11:00",11.8849966436328,"Working","OW432"
"2023-09-14 12:00",11.8809964461994,"Working","OW432"
"2023-09-14 13:00",11.877996248766,"Working","OW432"
"2023-09-14 14:00",11.8749960513327,"Working","OW432"
"2023-09-14 15:00",11.8739958538993,"Working","OW432"
"2023-09-14 16:00",11.8779956564659,"Working","OW432"
"2023-09-14 17:00",11.8829954590326,"Working","OW432"
"2023-09-14 18:00",11.8899952615992,"Working","OW432"
"2023-09-14 19:00",11.8979950641658,"Working","OW432"
"2023-09-14 20:00",11.9069948667325,"Working","OW432"
"2023-09-14 21:00",11.9109946692991,"Working","OW432"
"2023-09-14 22:00",11.9139944718657,"Working","OW432"
"2023-09-14 23:00",11.9139942744324,"Working","OW432"
"2023-09-15 00:00",11.912994076999,"Working","OW432"
"2023-09-15 01:00",11.9099938795656,"Working","OW432"
"2023-09-15 02:00",11.9089936821323,"Working","OW432"
"2023-09-15 03:00",11.9089934846989,"Working","OW432"
"2023-09-15 04:00",11.9099932872655,"Working","OW432"
"2023-09-15 05:00",11.9129930898322,"Working","OW432"
"2023-09-15 06:00",11.9169928923988,"Working","OW432"
"2023-09-15 07:00",11.9219926949654,"Working","OW432"
"2023-09-15 08:00",11.9269924975321,"Working","OW432"
"2023-09-15 09:00",11.9279923000987,"Working","OW432"
"2023-09-15 10:00",11.9269921026654,"Working","OW432"
"2023-09-15 11:00",11.926991905232,"Working","OW432"
"2023-09-15 12:00",11.9219917077986,"Working","OW432"
"2023-09-15 13:00",11.9189915103653,"Working","OW432"
"2023-09-15 14:00",11.9149913129319,"Working","OW432"
"2023-09-15 15:00",11.9149911154985,"Working","OW432"
"2023-09-15 16:00",11.9159909180652,"Working","OW432"
"2023-09-15 17:00",11.9149907206318,"Working","OW432"
"2023-09-15 18:00",11.9239905231984,"Working","OW432"
"2023-09-15 19:00",11.9309903257651,"Working","OW432"
"2023-09-15 20:00",11.9389901283317,"Working","OW432"
"2023-09-15 21:00",11.9449899308983,"Working","OW432"
"2023-09-15 22:00",11.946989733465,"Working","OW432"
"2023-09-15 23:00",11.9469895360316,"Working","OW432"
"2023-09-16 00:00",11.9449893385982,"Working","OW432"
"2023-09-16 01:00",11.9429891411649,"Working","OW432"
"2023-09-16 02:00",11.9369889437315,"Working","OW432"
"2023-09-16 03:00",11.9339887462981,"Working","OW432"
"2023-09-16 04:00",11.9299885488648,"Working","OW432"
"2023-09-16 05:00",11.9339883514314,"Working","OW432"
"2023-09-16 06:00",11.938988153998,"Working","OW432"
"2023-09-16 07:00",11.9439879565647,"Working","OW432"
"2023-09-16 08:00",11.9449877591313,"Working","OW432"
"2023-09-16 09:00",11.9469875616979,"Working","OW432"
"2023-09-16 10:00",11.9459873642646,"Working","OW432"
"2023-09-16 11:00",11.9429871668312,"Working","OW432"
"2023-09-16 12:00",11.9379869693978,"Working","OW432"
"2023-09-16 13:00",11.9349867719645,"Working","OW432"
"2023-09-16 14:00",11.9309865745311,"Working","OW432"
"2023-09-16 15:00",11.9269863770977,"Working","OW432"
"2023-09-16 16:00",11.9259861796644,"Working","OW432"
"2023-09-16 17:00",11.929985982231,"Working","OW432"
"2023-09-16 18:00",11.9369857847976,"Working","OW432"
"2023-09-16 19:00",11.9439855873643,"Working","OW432"
"2023-09-16 20:00",11.9509853899309,"Working","OW432"
"2023-09-16 21:00",11.9549851924975,"Working","OW432"
"2023-09-16 22:00",11.9539849950642,"Working","OW432"
"2023-09-16 23:00",11.9529847976308,"Working","OW432"
"2023-09-17 00:00",11.9509846001974,"Working","OW432"
"2023-09-17 01:00",11.9469844027641,"Working","OW432"
"2023-09-17 02:00",11.9409842053307,"Working","OW432"
"2023-09-17 03:00",11.9329840078973,"Working","OW432"
"2023-09-17 04:00",11.930983810464,"Working","OW432"
"2023-09-17 05:00",11.9339836130306,"Working","OW432"
"2023-09-17 06:00",11.9319834155972,"Working","OW432"
"2023-09-17 07:00",11.9369832181639,"Working","OW432"
"2023-09-17 08:00",11.9369830207305,"Working","OW432"
"2023-09-17 09:00",11.9399828232971,"Working","OW432"
"2023-09-17 10:00",11.9389826258638,"Working","OW432"
"2023-09-17 11:00",11.9379824284304,"Working","OW432"
"2023-09-17 12:00",11.933982230997,"Working","OW432"
"2023-09-17 13:00",11.9279820335637,"Working","OW432"
"2023-09-17 14:00",11.9209818361303,"Working","OW432"
"2023-09-17 15:00",11.9129816386969,"Working","OW432"
"2023-09-17 16:00",11.9119814412636,"Working","OW432"
"2023-09-17 17:00",11.9119812438302,"Working","OW432"
"2023-09-17 18:00",11.9139810463968,"Working","OW432"
"2023-09-17 19:00",11.9179808489635,"Working","OW432"
"2023-09-17 20:00",11.9209806515301,"Working","OW432"
"2023-09-17 21:00",11.9259804540967,"Working","OW432"
"2023-09-17 22:00",11.9289802566634,"Working","OW432"
"2023-09-17 23:00",11.92998005923,"Working","OW432"
"2023-09-18 00:00",11.9329798617966,"Working","OW432"
"2023-09-18 01:00",11.9339796643633,"Working","OW432"
"2023-09-18 02:00",11.9299794669299,"Working","OW432"
"2023-09-18 03:00",11.9319792694965,"Working","OW432"
"2023-09-18 04:00",11.9329790720632,"Working","OW432"
"2023-09-18 05:00",11.9389788746298,"Working","OW432"
"2023-09-18 06:00",11.9419786771964,"Working","OW432"
"2023-09-18 07:00",11.9399784797631,"Working","OW432"
"2023-09-18 08:00",11.9419782823297,"Working","OW432"
"2023-09-18 09:00",11.9399780848963,"Working","OW432"
"2023-09-18 10:00",11.937977887463,"Working","OW432"
"2023-09-18 11:00",11.9349776900296,"Working","OW432"
"2023-09-18 12:00",11.9289774925962,"Working","OW432"
"2023-09-18 13:00",11.9229772951629,"Working","OW432"
"2023-09-18 14:00",11.9169770977295,"Working","OW432"
"2023-09-18 15:00",11.9069769002962,"Working","OW432"
"2023-09-18 16:00",11.9039767028628,"Working","OW432"
"2023-09-18 17:00",11.9029765054294,"Working","OW432"
"2023-09-18 18:00",11.9039763079961,"Working","OW432"
"2023-09-18 19:00",11.9059761105627,"Working","OW432"
"2023-09-18 20:00",11.9099759131293,"Working","OW432"
"2023-09-18 21:00",11.911975715696,"Working","OW432"
"2023-09-18 22:00",11.9109755182626,"Working","OW432"
"2023-09-18 23:00",11.9089753208292,"Working","OW432"
"2023-09-19 00:00",11.9079751233959,"Working","OW432"
"2023-09-19 01:00",11.9059749259625,"Working","OW432"
"2023-09-19 02:00",11.9019747285291,"Working","OW432"
"2023-09-19 03:00",11.8999745310958,"Working","OW432"
"2023-09-19 04:00",11.8959743336624,"Working","OW432"
"2023-09-19 05:00",11.899974136229,"Working","OW432"
"2023-09-19 06:00",11.8989739387957,"Working","OW432"
"2023-09-19 07:00",11.9049737413623,"Working","OW432"
"2023-09-19 08:00",11.9049735439289,"Working","OW432"
"2023-09-19 09:00",11.9109733464956,"Working","OW432"
"2023-09-19 10:00",11.9119731490622,"Working","OW432"
"2023-09-19 11:00",11.9159729516288,"Working","OW432"
"2023-09-19 12:00",11.9159727541955,"Working","OW432"
"2023-09-19 13:00",11.9089725567621,"Working","OW432"
"2023-09-19 14:00",11.9049723593287,"Working","OW432"
"2023-09-19 15:00",11.9029721618954,"Working","OW432"
"2023-09-19 16:00",11.900971964462,"Working","OW432"
"2023-09-19 17:00",11.8999717670286,"Working","OW432"
"2023-09-19 18:00",11.9019715695953,"Working","OW432"
"2023-09-19 19:00",11.9039713721619,"Working","OW432"
"2023-09-19 20:00",11.9089711747285,"Working","OW432"
"2023-09-19 21:00",11.9199709772952,"Working","OW432"
"2023-09-19 22:00",11.9229707798618,"Working","OW432"
"2023-09-19 23:00",11.9239705824284,"Working","OW432"
"2023-09-20 00:00",11.9249703849951,"Working","OW432"
"2023-09-20 01:00",11.9289701875617,"Working","OW432"
"2023-09-20 02:00",11.9279699901283,"Working","OW432"
"2023-09-20 03:00",11.923969792695,"Working","OW432"
"2023-09-20 04:00",11.9209695952616,"Working","OW432"
"2023-09-20 05:00",11.9199693978282,"Working","OW432"
"2023-09-20 06:00",11.9129692003949,"Working","OW432"
"2023-09-20 07:00",11.9089690029615,"Working","OW432"
"2023-09-20 08:00",11.9149688055281,"Working","OW432"
"2023-09-20 09:00",11.9169686080948,"Working","OW432"
"2023-09-20 10:00",11.9169684106614,"Working","OW432"
"2023-09-20 11:00",11.917968213228,"Working","OW432"
"2023-09-20 12:00",11.9109680157947,"Working","OW432"
"2023-09-20 13:00",11.9069678183613,"Working","OW432"
"2023-09-20 14:00",11.8979676209279,"Working","OW432"
"2023-09-20 15:00",11.8899674234946,"Working","OW432"
"2023-09-20 16:00",11.8839672260612,"Working","OW432"
"2023-09-20 17:00",11.8819670286278,"Working","OW432"
"2023-09-20 18:00",11.8799668311945,"Working","OW432"
"2023-09-20 19:00",11.8779666337611,"Working","OW432"
"2023-09-20 20:00",11.8809664363277,"Working","OW432"
"2023-09-20 21:00",11.8829662388944,"Working","OW432"
"2023-09-20 22:00",11.884966041461,"Working","OW432"
"2023-09-20 23:00",11.8839658440276,"Working","OW432"
"2023-09-21 00:00",11.8839656465943,"Working","OW432"
"2023-09-21 01:00",11.8789654491609,"Working","OW432"
"2023-09-21 02:00",11.8749652517275,"Working","OW432"
"2023-09-21 03:00",11.8679650542942,"Working","OW432"
"2023-09-21 04:00",11.8639648568608,"Working","OW432"
"2023-09-21 05:00",11.8609646594274,"Working","OW432"
"2023-09-21 06:00",11.8619644619941,"Working","OW432"
"2023-09-21 07:00",11.8639642645607,"Working","OW432"
"2023-09-21 08:00",11.8609640671273,"Working","OW432"
"2023-09-21 09:00",11.862963869694,"Working","OW432"
"2023-09-21 10:00",11.8669636722606,"Working","OW432"
"2023-09-21 11:00",11.8679634748272,"Working","OW432"
"2023-09-21 12:00",11.8679632773939,"Working","OW432"
"2023-09-21 13:00",11.8659630799605,"Working","OW432"
"2023-09-21 14:00",11.8629628825271,"Working","OW432"
"2023-09-21 15:00",11.8599626850938,"Working","OW432"
"2023-09-21 16:00",11.8599624876604,"Working","OW432"
"2023-09-21 17:00",11.858962290227,"Working","OW432"
"2023-09-21 18:00",11.8579620927937,"Working","OW432"
"2023-09-21 19:00",11.8579618953603,"Working","OW432"
"2023-09-21 20:00",11.8599616979269,"Working","OW432"
"2023-09-21 21:00",11.8629615004936,"Working","OW432"
"2023-09-21 22:00",11.8679613030602,"Working","OW432"
"2023-09-21 23:00",11.8739611056269,"Working","OW432"
"2023-09-22 00:00",11.8779609081935,"Working","OW432"
"2023-09-22 01:00",11.8799607107601,"Working","OW432"
"2023-09-22 02:00",11.8769605133268,"Working","OW432"
"2023-09-22 03:00",11.8749603158934,"Working","OW432"
"2023-09-22 04:00",11.87496011846,"Working","OW432"
"2023-09-22 05:00",11.8709599210267,"Working","OW432"
"2023-09-22 06:00",11.8699597235933,"Working","OW432"
"2023-09-22 07:00",11.8699595261599,"Working","OW432"
"2023-09-22 08:00",11.8699593287266,"Working","OW432"
"2023-09-22 09:00",11.8739591312932,"Working","OW432"
"2023-09-22 10:00",11.8789589338598,"Working","OW432"
"2023-09-22 11:00",11.8799587364265,"Working","OW432"
"2023-09-22 12:00",11.8809585389931,"Working","OW432"
"2023-09-22 13:00",11.8849583415597,"Working","OW432"
"2023-09-22 14:00",11.8849581441264,"Working","OW432"
"2023-09-22 15:00",11.880957946693,"Working","OW432"
"2023-09-22 16:00",11.8799577492596,"Working","OW432"
"2023-09-22 17:00",11.8809575518263,"Working","OW432"
"2023-09-22 18:00",11.8799573543929,"Working","OW432"
"2023-09-22 19:00",11.8839571569595,"Working","OW432"
"2023-09-22 20:00",11.8859569595262,"Working","OW432"
"2023-09-22 21:00",11.8869567620928,"Working","OW432"
"2023-09-22 22:00",11.8899565646594,"Working","OW432"
"2023-09-22 23:00",11.8939563672261,"Working","OW432"
"2023-09-23 00:00",11.8969561697927,"Working","OW432"
"2023-09-23 01:00",11.8889559723593,"Working","OW432"
"2023-09-23 02:00",11.888955774926,"Working","OW432"
"2023-09-23 03:00",11.8859555774926,"Working","OW432"
"2023-09-23 04:00",11.8879553800592,"Working","OW432"
"2023-09-23 05:00",11.8899551826259,"Working","OW432"
"2023-09-23 06:00",11.8889549851925,"Working","OW432"
"2023-09-23 07:00",11.8899547877591,"Working","OW432"
"2023-09-23 08:00",11.8939545903258,"Working","OW432"
"2023-09-23 09:00",11.8959543928924,"Working","OW432"
"2023-09-23 10:00",11.900954195459,"Working","OW432"
"2023-09-23 11:00",11.9049539980257,"Working","OW432"
"2023-09-23 12:00",11.9069538005923,"Working","OW432"
"2023-09-23 13:00",11.9089536031589,"Working","OW432"
"2023-09-23 14:00",11.9089534057256,"Working","OW432"
"2023-09-23 15:00",11.9099532082922,"Working","OW432"
"2023-09-23 16:00",11.9119530108588,"Working","OW432"
"2023-09-23 17:00",11.9109528134255,"Working","OW432"
"2023-09-23 18:00",11.9019526159921,"Working","OW432"
"2023-09-23 19:00",11.8939524185587,"Working","OW432"
"2023-09-23 20:00",11.8909522211254,"Working","OW432"
"2023-09-23 21:00",11.885952023692,"Working","OW432"
"2023-09-23 22:00",11.8839518262586,"Working","OW432"
"2023-09-23 23:00",11.8779516288253,"Working","OW432"
"2023-09-24 00:00",11.8719514313919,"Working","OW432"
"2023-09-24 01:00",11.8719512339585,"Working","OW432"
"2023-09-24 02:00",11.8689510365252,"Working","OW432"
"2023-09-24 03:00",11.8669508390918,"Working","OW432"
"2023-09-24 04:00",11.8639506416584,"Working","OW432"
"2023-09-24 05:00",11.8659504442251,"Working","OW432"
"2023-09-24 06:00",11.8639502467917,"Working","OW432"
"2023-09-24 07:00",11.8599500493583,"Working","OW432"
"2023-09-24 08:00",11.855949851925,"Working","OW432"
"2023-09-24 09:00",11.8539496544916,"Working","OW432"
"2023-09-24 10:00",11.8529494570582,"Working","OW432"
"2023-09-24 11:00",11.8549492596249,"Working","OW432"
"2023-09-24 12:00",11.8559490621915,"Working","OW432"
"2023-09-24 13:00",11.8589488647581,"Working","OW432"
"2023-09-24 14:00",11.8609486673248,"Working","OW432"
"2023-09-24 15:00",11.8669484698914,"Working","OW432"
"2023-09-24 16:00",11.863948272458,"Working","OW432"
"2023-09-24 17:00",11.8769480750247,"Working","OW432"
"2023-09-24 18:00",11.8809478775913,"Working","OW432"
"2023-09-24 19:00",11.8829476801579,"Working","OW432"
"2023-09-24 20:00",11.8819474827246,"Working","OW432"
"2023-09-24 21:00",11.8859472852912,"Working","OW432"
"2023-09-24 22:00",11.8869470878578,"Working","OW432"
"2023-09-24 23:00",11.8819468904245,"Working","OW432"
"2023-09-25 00:00",11.8839466929911,"Working","OW432"
"2023-09-25 01:00",11.8869464955577,"Working","OW432"
"2023-09-25 02:00",11.8929462981244,"Working","OW432"
"2023-09-25 03:00",11.860946100691,"Working","OW432"
"2023-09-25 04:00",11.8619459032577,"Working","OW432"
"2023-09-25 05:00",11.8569457058243,"Working","OW432"
"2023-09-25 06:00",11.8549455083909,"Working","OW432"
"2023-09-25 07:00",11.8549453109576,"Working","OW432"
"2023-09-25 08:00",11.8419451135242,"Working","OW432"
"2023-09-25 09:00",11.8289449160908,"Working","OW432"
"2023-09-25 10:00",11.8349447186575,"Working","OW432"
"2023-09-25 11:00",11.8309445212241,"Working","OW432"
"2023-09-25 12:00",11.8309443237907,"Working","OW432"
"2023-09-25 13:00",11.8289441263574,"Working","OW432"
"2023-09-25 14:00",11.833943928924,"Working","OW432"
"2023-09-25 15:00",11.8389437314906,"Working","OW432"
"2023-09-25 16:00",11.8449435340573,"Working","OW432"
"2023-09-25 17:00",11.8459433366239,"Working","OW432"
"2023-09-25 18:00",11.8499431391905,"Working","OW432"
"2023-09-25 19:00",11.8449429417572,"Working","OW432"
"2023-09-25 20:00",11.8459427443238,"Working","OW432"
"2023-09-25 21:00",11.8309425468904,"Working","OW432"
"2023-09-25 22:00",11.8339423494571,"Working","OW432"
"2023-09-25 23:00",11.8279421520237,"Working","OW432"
"2023-09-26 00:00",11.8259419545903,"Working","OW432"
"2023-09-26 01:00",11.822941757157,"Working","OW432"
"2023-09-26 02:00",11.8219415597236,"Working","OW432"
"2023-09-26 03:00",11.8159413622902,"Working","OW432"
"2023-09-26 04:00",11.8119411648569,"Working","OW432"
"2023-09-26 05:00",11.8109409674235,"Working","OW432"
"2023-09-26 06:00",11.8089407699901,"Working","OW432"
"2023-09-26 07:00",11.8089405725568,"Working","OW432"
"2023-09-26 08:00",11.8039403751234,"Working","OW432"
"2023-09-26 09:00",11.80394017769,"Working","OW432"
"2023-09-26 10:00",11.8009399802567,"Working","OW432"
"2023-09-26 11:00",11.7959397828233,"Working","OW432"
"2023-09-26 12:00",11.7919395853899,"Working","OW432"
"2023-09-26 13:00",11.7899393879566,"Working","OW432"
"2023-09-26 14:00",11.7899391905232,"Working","OW432"
"2023-09-26 15:00",11.7909389930898,"Working","OW432"
"2023-09-26 16:00",11.7949387956565,"Working","OW432"
"2023-09-26 17:00",11.7959385982231,"Working","OW432"
"2023-09-26 18:00",11.7989384007897,"Working","OW432"
"2023-09-26 19:00",11.7899382033564,"Working","OW432"
"2023-09-26 20:00",11.791938005923,"Working","OW432"
"2023-09-26 21:00",11.7899378084896,"Working","OW432"
"2023-09-26 22:00",11.7779376110563,"Working","OW432"
"2023-09-26 23:00",11.7739374136229,"Working","OW432"
"2023-09-27 00:00",11.7679372161895,"Working","OW432"
"2023-09-27 01:00",11.7599370187562,"Working","OW432"
"2023-09-27 02:00",11.7509368213228,"Working","OW432"
"2023-09-27 03:00",11.7549366238894,"Working","OW432"
"2023-09-27 04:00",11.7599364264561,"Working","OW432"
"2023-09-27 05:00",11.7649362290227,"Working","OW432"
"2023-09-27 06:00",11.7669360315893,"Working","OW432"
"2023-09-27 07:00",11.767935834156,"Working","OW432"
"2023-09-27 08:00",11.7699356367226,"Working","OW432"
"2023-09-27 09:00",11.7689354392892,"Working","OW432"
"2023-09-27 10:00",11.7699352418559,"Working","OW432"
"2023-09-27 11:00",11.7649350444225,"Working","OW432"
"2023-09-27 12:00",11.7599348469891,"Working","OW432"
"2023-09-27 13:00",11.7549346495558,"Working","OW432"
"2023-09-27 14:00",11.7529344521224,"Working","OW432"
"2023-09-27 15:00",11.749934254689,"Working","OW432"
"2023-09-27 16:00",11.7509340572557,"Working","OW432"
"2023-09-27 17:00",11.7539338598223,"Working","OW432"
"2023-09-27 18:00",11.7549336623889,"Working","OW432"
"2023-09-27 19:00",11.7549334649556,"Working","OW432"
"2023-09-27 20:00",11.7509332675222,"Working","OW432"
"2023-09-27 21:00",11.7449330700888,"Working","OW432"
"2023-09-27 22:00",11.7379328726555,"Working","OW432"
"2023-09-27 23:00",11.7309326752221,"Working","OW432"
"2023-09-28 00:00",11.7219324777887,"Working","OW432"
"2023-09-28 01:00",11.7159322803554,"Working","OW432"
"2023-09-28 02:00",11.711932082922,"Working","OW432"
"2023-09-28 03:00",11.7119318854886,"Working","OW432"
"2023-09-28 04:00",11.7129316880553,"Working","OW432"
"2023-09-28 05:00",11.7149314906219,"Working","OW432"
"2023-09-28 06:00",11.7159312931885,"Working","OW432"
"2023-09-28 07:00",11.7189310957552,"Working","OW432"
"2023-09-28 08:00",11.7159308983218,"Working","OW432"
"2023-09-28 09:00",11.7129307008884,"Working","OW432"
"2023-09-28 10:00",11.7089305034551,"Working","OW432"
"2023-09-28 11:00",11.7019303060217,"Working","OW432"
"2023-09-28 12:00",11.6979301085884,"Working","OW432"
"2023-09-28 13:00",11.695929911155,"Working","OW432"
"2023-09-28 14:00",11.6939297137216,"Working","OW432"
"2023-09-28 15:00",11.6949295162883,"Working","OW432"
"2023-09-28 16:00",11.6989293188549,"Working","OW432"
"2023-09-28 17:00",11.7049291214215,"Working","OW432"
"2023-09-28 18:00",11.7089289239882,"Working","OW432"
"2023-09-28 19:00",11.7109287265548,"Working","OW432"
"2023-09-28 20:00",11.7109285291214,"Working","OW432"
"2023-09-28 21:00",11.7099283316881,"Working","OW432"
"2023-09-28 22:00",11.7059281342547,"Working","OW432"
"2023-09-28 23:00",11.7019279368213,"Working","OW432"
"2023-09-29 00:00",11.693927739388,"Working","OW432"
"2023-09-29 01:00",11.6869275419546,"Working","OW432"
"2023-09-29 02:00",11.6799273445212,"Working","OW432"
"2023-09-29 03:00",11.6809271470879,"Working","OW432"
"2023-09-29 04:00",11.6809269496545,"Working","OW432"
"2023-09-29 05:00",11.6829267522211,"Working","OW432"
"2023-09-29 06:00",11.6879265547878,"Working","OW432"
"2023-09-29 07:00",11.6919263573544,"Working","OW432"
"2023-09-29 08:00",11.691926159921,"Working","OW432"
"2023-09-29 09:00",11.6869259624877,"Working","OW432"
"2023-09-29 10:00",11.6829257650543,"Working","OW432"
"2023-09-29 11:00",11.6759255676209,"Working","OW432"
"2023-09-29 12:00",11.6689253701876,"Working","OW432"
"2023-09-29 13:00",11.6619251727542,"Working","OW432"
"2023-09-29 14:00",11.6589249753208,"Working","OW432"
"2023-09-29 15:00",11.6579247778875,"Working","OW432"
"2023-09-29 16:00",11.6599245804541,"Working","OW432"
"2023-09-29 17:00",11.6639243830207,"Working","OW432"
"2023-09-29 18:00",11.6699241855874,"Working","OW432"
"2023-09-29 19:00",11.674923988154,"Working","OW432"
"2023-09-29 20:00",11.6799237907206,"Working","OW432"
"2023-09-29 21:00",11.6829235932873,"Working","OW432"
"2023-09-29 22:00",11.6849233958539,"Working","OW432"
"2023-09-29 23:00",11.6839231984205,"Working","OW432"
"2023-09-30 00:00",11.6779230009872,"Working","OW432"
"2023-09-30 01:00",11.6729228035538,"Working","OW432"
"2023-09-30 02:00",11.6669226061204,"Working","OW432"
"2023-09-30 03:00",11.6629224086871,"Working","OW432"
"2023-09-30 04:00",11.6619222112537,"Working","OW432"
"2023-09-30 05:00",11.6649220138203,"Working","OW432"
"2023-09-30 06:00",11.667921816387,"Working","OW432"
"2023-09-30 07:00",11.6709216189536,"Working","OW432"
"2023-09-30 08:00",11.6749214215202,"Working","OW432"
"2023-09-30 09:00",11.6739212240869,"Working","OW432"
"2023-09-30 10:00",11.6709210266535,"Working","OW432"
"2023-09-30 11:00",11.6649208292201,"Working","OW432"
"2023-09-30 12:00",11.6589206317868,"Working","OW432"
"2023-09-30 13:00",11.6499204343534,"Working","OW432"
"2023-09-30 14:00",11.64192023692,"Working","OW432"
"2023-09-30 15:00",11.6349200394867,"Working","OW432"
"2023-09-30 16:00",11.6319198420533,"Working","OW432"
"2023-09-30 17:00",11.6359196446199,"Working","OW432"
"2023-09-30 18:00",11.6409194471866,"Working","OW432"
"2023-09-30 19:00",11.6449192497532,"Working","OW432"
"2023-09-30 20:00",11.6479190523198,"Working","OW432"
"2023-09-30 21:00",11.6529188548865,"Working","OW432"
"2023-09-30 22:00",11.6489186574531,"Working","OW432"
"2023-09-30 23:00",11.6459184600197,"Working","OW432"
"2023-10-01 00:00",11.6409182625864,"Working","OW432"
"2023-10-01 01:00",11.633918065153,"Working","OW432"
"2023-10-01 02:00",11.6269178677196,"Working","OW432"
"2023-10-01 03:00",11.6219176702863,"Working","OW432"
"2023-10-01 04:00",11.6189174728529,"Working","OW432"
"2023-10-01 05:00",11.6169172754195,"Working","OW432"
"2023-10-01 06:00",11.6199170779862,"Working","OW432"
"2023-10-01 07:00",11.6229168805528,"Working","OW432"
"2023-10-01 08:00",11.6269166831194,"Working","OW432"
"2023-10-01 09:00",11.6229164856861,"Working","OW432"
"2023-10-01 10:00",11.6239162882527,"Working","OW432"
"2023-10-01 11:00",11.6199160908193,"Working","OW432"
"2023-10-01 12:00",11.614915893386,"Working","OW432"
"2023-10-01 13:00",11.6079156959526,"Working","OW432"
"2023-10-01 14:00",11.5979154985193,"Working","OW432"
"2023-10-01 15:00",11.5919153010859,"Working","OW432"
"2023-10-01 16:00",11.5909151036525,"Working","OW432"
"2023-10-01 17:00",11.5929149062192,"Working","OW432"
"2023-10-01 18:00",11.5959147087858,"Working","OW432"
"2023-10-01 19:00",11.6039145113524,"Working","OW432"
"2023-10-01 20:00",11.6119143139191,"Working","OW432"
"2023-10-01 21:00",11.6189141164857,"Working","OW432"